Wind_Gust
29 30 29 28 26 25 27 24 23 23 23 22 22 22 22 20 21 21 19 18 18 17 17 17 17 17 17 17 16 16 16 15 16 16 17 18 18 18 22 21 20 21
29 30 29 28 26 25 26 24 24 24 24 23 22 21 20 20 20 21 20 19 19 18 18 18 18 18 17 17 16 16 15 15 15 13 14 14 15 14 16 16 18 18
29 29 29 28 28 26 26 24 23 23 23 23 21 20 20 20 21 21 20 20 20 19 18 18 18 18 17 15 15 15 16 12 13 11 12 12 12 11 11 12 14 15
30 31 31 29 27 28 27 27 23 23 21 23 22 23 22 21 23 22 20 19 20 20 20 19 17 17 15 14 13 14 13 12 11 11 11 10 10 11 11 11 12 14
31 32 30 29 28 28 26 26 26 24 24 24 22 22 23 23 23 23 22 22 20 19 17 17 15 15 14 14 14 12 12 11 11 12 12 12 10 10 11 12 13 13
30 32 31 30 28 29 30 27 27 25 24 22 23 23 24 24 25 24 23 23 20 19 18 17 16 14 14 13 13 12 12 13 13 13 13 13 13 13 11 12 13 14
32 31 30 28 26 28 28 27 26 25 25 24 24 24 24 25 24 24 24 22 21 20 19 17 15 15 14 13 13 13 13 12 14 16 16 15 14 15 12 13 15 15
32 30 31 29 27 29 28 28 26 25 24 23 23 24 25 27 26 24 23 22 20 20 19 18 15 15 14 14 15 14 13 12 14 16 16 14 14 15 14 14 12 13
32 32 31 30 30 29 30 29 25 25 26 25 25 25 26 27 25 24 23 23 22 21 19 17 16 15 15 15 14 15 16 14 14 15 15 15 16 16 17 15 14 13
33 34 32 33 32 29 28 26 26 25 25 26 26 27 29 25 23 23 23 24 24 23 20 18 18 16 16 17 17 16 16 16 16 15 16 16 17 17 17 16 16 14
33 33 34 32 31 29 27 30 28 26 26 27 26 27 25 22 22 22 23 24 24 24 21 19 19 19 19 18 16 15 16 15 16 16 16 16 16 15 12 15 15 14
33 30 32 32 31 30 31 29 27 26 28 26 27 28 24 23 24 22 23 23 22 22 21 20 20 20 20 18 18 16 15 15 15 16 16 16 15 15 16 15 15 15
36 34 32 32 31 31 31 30 30 28 28 28 27 27 24 23 23 23 21 22 22 21 20 20 20 20 19 18 18 18 17 17 17 16 15 14 15 16 15 15 15 16
33 31 29 31 28 28 31 33 31 30 28 27 27 27 24 24 24 24 23 22 22 21 21 19 19 21 20 20 19 19 18 18 18 17 17 15 14 15 14 15 15 15
29 27 28 26 30 31 31 33 32 30 27 27 26 24 21 23 23 24 23 23 21 21 21 19 20 21 21 21 21 20 19 19 18 19 17 17 17 16 15 15 15 15
32 26 32 32 33 32 35 33 31 28 27 26 27 24 22 23 23 22 23 23 23 21 20 19 19 19 14 14 13 20 20 19 19 18 18 17 17 17 16 16 16 15
31 33 34 36 34 33 31 32 31 27 28 28 26 25 26 26 24 23 23 23 23 22 20 19 19 18 15 14 14 14 17 18 19 19 18 18 18 17 17 17 16 16
35 37 33 32 29 33 33 32 30 29 29 29 27 27 26 25 24 23 23 21 21 21 21 20 20 14 19 16 15 15 12 19 18 19 19 19 18 18 18 18 17 17
32 38 33 31 33 33 33 32 31 30 29 28 29 27 25 25 24 23 22 22 22 22 22 23 19 17 19 18 16 16 15 14 19 18 19 18 18 19 18 18 18 18
34 34 32 33 32 32 31 31 29 30 28 28 28 27 28 28 27 26 23 23 23 22 25 25 19 18 19 19 17 17 16 13 17 18 17 18 19 19 18 18 19 19
34 35 34 31 31 31 30 29 28 27 28 28 29 29 29 30 30 28 24 22 23 24 25 26 19 21 20 20 19 18 18 12 16 17 18 18 19 18 18 18 19 19
33 32 31 30 31 31 30 30 28 29 30 27 27 27 26 27 24 24 23 23 23 27 25 25 20 23 20 20 20 18 18 19 18 19 18 19 19 19 19 19 19 19
34 33 31 32 33 31 31 30 29 30 28 28 28 28 28 29 27 28 25 25 26 29 25 23 20 21 20 21 20 20 17 23 18 20 19 19 19 19 20 19 19 19
33 32 31 31 32 32 32 30 29 29 30 30 30 29 28 28 31 29 27 28 29 29 26 22 20 20 21 20 21 22 19 24 21 21 20 20 20 19 19 19 17 15
32 34 34 31 31 32 32 30 30 31 30 29 29 28 27 27 28 26 22 23 24 23 16 21 21 21 21 21 21 23 22 22 21 21 21 20 21 21 19 18 19 16
33 32 31 32 33 31 31 31 30 31 29 29 29 29 25 23 21 22 24 22 23 22 23 21 22 22 24 22 22 22 22 22 21 20 22 22 20 22 21 19 18 18
Wind_Speed
15 15 15 14 13 12 14 13 11 11 11 11 11 10 10 9 10 11 10 9 9 8 8 9 8 8 7 7 7 6 6 7 7 6 7 8 8 9 9 11 11 10
17 16 14 13 13 12 13 13 12 12 12 12 10 10 9 10 11 11 10 9 9 9 9 9 9 8 8 7 7 7 6 6 6 4 5 7 7 7 8 9 10 9
17 17 17 16 14 15 15 13 12 11 11 12 11 9 9 10 10 10 10 10 10 9 9 9 9 8 8 7 7 7 6 6 6 4 5 5 5 4 5 5 7 9
18 18 17 15 15 16 15 14 12 11 11 11 11 11 10 8 10 12 11 11 10 10 9 9 8 8 7 7 6 6 6 5 4 3 4 3 4 4 4 4 5 5
18 17 16 16 15 15 15 14 14 13 12 11 10 11 9 10 12 11 11 11 10 10 8 8 8 7 7 6 6 5 5 4 4 4 4 4 4 4 4 5 5 6
17 17 17 17 15 15 15 15 14 14 13 12 11 10 11 13 13 13 12 12 10 9 9 8 8 6 6 6 6 5 5 5 5 5 5 5 5 5 4 5 5 6
18 17 18 15 16 15 15 15 14 13 13 12 12 12 13 13 13 13 13 11 11 10 10 8 8 7 6 5 6 6 5 5 5 7 7 6 6 7 5 4 6 7
19 17 18 16 16 15 16 14 15 13 12 12 12 13 14 14 14 12 12 12 10 10 10 9 8 7 6 5 6 6 5 4 5 7 7 6 5 5 5 5 5 6
18 17 18 19 19 16 17 16 14 13 13 14 13 13 14 13 13 13 11 12 12 11 10 9 8 7 6 7 6 7 7 6 6 7 7 7 7 7 8 7 6 6
19 19 20 19 17 14 17 16 15 13 14 14 14 14 14 13 12 13 12 12 12 12 11 10 9 7 7 8 8 8 7 7 7 7 7 7 8 8 8 7 7 6
19 19 20 20 19 17 17 18 16 14 13 15 14 14 14 11 11 12 12 12 11 12 11 10 10 10 10 9 7 7 7 7 7 7 7 8 7 7 7 7 7 6
19 18 18 19 19 17 18 17 15 14 15 14 14 15 13 12 12 10 11 12 11 11 11 10 10 10 11 9 9 8 7 7 7 7 7 7 7 7 8 7 6 6
20 19 18 18 15 17 15 15 14 15 15 15 14 15 13 12 11 11 10 11 11 11 11 11 11 10 10 9 9 9 8 8 8 8 7 6 7 7 7 7 6 6
17 18 15 15 14 15 16 16 16 16 16 15 15 15 13 13 13 13 11 11 11 11 11 10 10 10 10 10 9 9 9 9 9 8 8 7 7 7 7 6 6 6
15 13 13 15 13 12 14 16 18 17 15 14 14 13 10 12 12 13 12 12 11 11 11 10 9 10 9 9 10 10 9 9 9 9 8 8 8 7 7 7 7 6
16 15 13 13 15 18 20 19 17 15 14 14 15 12 11 11 11 12 12 12 12 11 10 9 8 8 8 11 10 9 10 8 8 9 9 8 8 8 7 8 7 7
17 17 18 19 19 19 18 18 17 14 14 15 15 14 14 14 12 12 12 12 12 12 11 8 9 7 13 12 10 9 9 9 9 9 9 9 9 8 8 8 8 8
16 21 19 19 17 19 19 18 16 16 16 16 14 16 14 13 14 12 12 11 10 11 11 9 9 12 16 13 12 11 9 9 8 8 8 9 8 8 8 8 8 8
14 18 17 17 19 19 18 17 17 17 16 16 17 15 14 14 12 12 12 12 11 12 12 12 9 14 16 15 12 13 9 8 8 8 9 8 8 8 8 8 8 8
15 20 15 18 19 18 18 18 17 17 16 15 15 15 15 15 15 15 12 12 12 12 12 13 10 14 16 15 14 13 11 9 8 9 8 8 8 9 8 9 9 9
20 20 20 18 18 18 17 17 16 15 16 15 15 15 15 16 16 16 13 12 12 12 13 13 8 17 16 16 15 13 13 10 7 8 8 8 8 9 9 9 9 9
20 19 18 17 18 18 17 17 16 16 17 15 14 14 13 14 13 13 12 12 13 14 14 14 9 19 16 16 15 14 13 9 8 9 8 8 9 9 9 9 9 9
19 19 18 19 18 18 18 17 17 16 15 14 15 14 14 15 14 13 12 13 14 16 14 12 10 15 17 17 16 15 12 10 9 9 8 9 9 9 9 9 9 10
20 19 18 19 18 18 19 17 15 14 15 15 15 15 14 15 15 14 14 15 17 16 13 12 10 14 17 17 16 17 15 12 9 9 9 9 9 9 9 9 9 9
18 19 18 17 17 19 18 17 16 16 15 14 14 14 14 14 15 13 12 11 13 13 14 12 11 13 17 17 17 18 14 10 9 9 10 10 9 9 9 8 9 8
18 18 17 18 19 19 17 16 15 14 16 15 15 14 12 11 10 9 12 11 12 11 11 11 12 11 15 18 18 18 18 11 9 9 10 10 9 9 9 9 8 8
Wind_Direction
185 190 191 192 190 190 185 185 182 175 182 186 188 186 185 185 180 187 188 192 195 197 199 195 187 186 183 185 191 195 196 207 216 208 210 215 220 222 225 227 228 232
190 191 189 186 191 192 187 183 180 182 185 188 187 184 177 185 184 187 184 188 191 194 192 189 187 186 188 188 192 199 206 200 209 196 209 213 222 224 228 233 238 237
189 191 192 189 190 190 186 183 183 186 189 189 181 177 175 188 178 189 183 185 188 188 188 187 186 188 191 195 193 205 209 202 209 192 202 201 207 205 204 210 224 228
190 191 192 189 192 189 184 183 184 186 186 185 183 180 180 175 182 186 183 185 186 185 184 184 181 183 187 184 183 208 208 205 199 179 190 180 184 190 184 196 213 216
190 191 192 190 193 189 182 182 182 185 184 179 177 177 166 178 188 182 181 183 184 179 171 174 175 178 176 176 189 192 179 185 166 186 197 188 164 172 177 193 203 211
189 190 190 190 189 186 184 183 183 184 182 176 179 174 178 183 186 184 182 178 174 169 167 168 168 166 177 179 184 188 183 192 174 183 193 187 175 183 185 192 194 207
186 189 190 188 189 185 186 182 179 182 182 181 176 182 185 186 190 189 184 176 173 171 171 165 167 169 177 180 188 185 185 194 175 192 196 188 183 180 182 187 199 205
188 184 187 189 186 182 186 186 182 177 170 176 181 184 189 187 189 187 182 174 167 169 171 170 171 170 173 184 192 180 174 176 187 192 198 181 182 183 180 196 195 196
186 184 184 187 187 186 187 186 178 170 170 181 182 185 188 189 188 182 172 170 171 171 168 164 170 171 175 189 193 182 183 179 188 198 192 179 180 187 187 181 184 184
186 184 185 185 185 186 189 186 172 173 176 181 184 187 187 187 182 178 173 174 172 169 167 164 168 170 180 196 192 190 189 186 187 194 191 187 187 186 182 179 183 179
188 184 183 184 185 183 185 186 173 175 174 182 185 187 184 172 177 181 174 172 169 171 169 169 169 187 199 196 186 186 189 183 187 193 196 191 184 181 171 184 176 179
186 183 183 185 183 180 185 183 172 170 176 185 184 188 176 172 173 174 176 174 170 169 168 171 178 197 198 190 182 177 180 178 185 194 195 188 176 175 178 180 177 172
187 185 184 183 178 180 183 173 169 178 179 183 185 188 173 169 172 174 175 175 170 167 171 175 187 197 192 184 180 175 178 178 182 190 189 183 176 179 177 173 172 166
186 182 178 178 175 171 174 176 178 178 185 184 185 187 176 171 172 177 174 176 169 167 169 173 175 185 188 181 181 177 179 180 181 183 181 174 177 177 173 169 168 167
178 172 176 172 162 160 173 178 181 183 184 181 182 177 166 170 170 173 170 173 166 166 166 170 177 186 187 183 181 179 180 181 180 181 177 174 174 175 171 169 171 174
174 174 162 160 168 175 178 182 183 180 181 179 181 165 159 169 173 173 172 170 167 166 169 170 178 190 169 175 178 177 178 178 177 178 178 176 177 173 172 172 178 175
175 172 174 172 177 176 180 183 183 179 181 180 178 172 180 182 181 175 176 172 168 167 168 172 178 171 142 161 166 178 176 174 174 175 178 177 177 173 173 174 178 180
172 177 175 174 173 177 178 181 180 178 181 182 171 175 178 180 183 175 172 167 166 170 169 170 189 137 158 157 162 170 185 174 174 174 178 177 178 177 174 177 178 179
176 179 173 171 175 173 174 176 177 178 183 182 176 176 178 181 175 171 172 170 170 174 182 184 187 146 161 163 161 169 181 194 175 176 179 178 176 179 178 178 180 177
171 176 170 173 174 169 170 174 176 180 178 177 174 176 182 185 187 185 173 172 174 174 183 191 181 154 161 165 165 170 176 208 177 176 180 176 177 179 180 181 182 182
170 169 173 173 167 164 167 171 176 176 177 177 178 179 183 185 185 186 177 174 176 180 188 189 159 156 163 166 167 171 176 213 180 177 178 178 181 182 184 185 184 188
170 171 170 167 165 165 167 170 174 175 176 176 177 179 184 184 182 184 172 172 176 180 189 186 149 161 163 167 166 169 174 200 185 178 180 180 181 185 187 188 188 190
171 170 168 168 166 165 167 170 173 175 175 177 179 181 182 187 185 185 180 178 176 186 182 178 148 167 164 165 165 166 172 197 182 183 179 182 183 185 192 189 192 191
171 168 167 168 168 168 171 172 172 172 176 179 182 179 180 184 183 185 189 190 188 184 178 163 151 164 168 166 165 170 185 191 186 184 180 182 182 185 191 191 190 187
170 171 169 167 167 171 172 171 173 175 179 179 183 180 179 182 181 183 177 177 179 180 157 154 149 162 172 168 171 176 191 197 190 184 181 184 182 182 190 191 184 175
172 170 167 168 170 172 173 172 171 174 177 180 181 183 177 165 169 171 170 173 171 166 159 161 152 158 176 174 176 180 197 207 187 189 183 183 187 179 185 191 185 182